| time (UTC) | temp F | wind direction | speed MPH | gust MPH | rain 1hr in | rain 24hr in | rain mn in | humidity % | barometer mb |
| 20260906022705 | 55 | 19 | 2.0 | 3.0 | 0.01 | 0.11 | 0.11 | 91 | 1015.7 |
| 20260906022205 | 55 | 19 | 2.0 | 3.0 | 0.01 | 0.11 | 0.11 | 91 | 1015.6 |
| 20260906020705 | 55 | 10 | 2.0 | 3.0 | 0.02 | 0.11 | 0.11 | 91 | 1015.6 |
| 20260906020205 | 55 | 7 | 2.0 | 3.0 | 0.03 | 0.11 | 0.11 | 91 | 1015.7 |
| 20260906014705 | 55 | 18 | 2.0 | 6.0 | 0.06 | 0.11 | 0.11 | 90 | 1015.8 |
| 20260906014205 | 55 | 40 | 3.0 | 8.0 | 0.08 | 0.11 | 0.11 | 90 | 1015.5 |
| 20260906012705 | 55 | 56 | 6.0 | 14.0 | 0.10 | 0.10 | 0.10 | 90 | 1015.1 |
| 20260906012204 | 55 | 68 | 5.0 | 14.0 | 0.10 | 0.10 | 0.10 | 90 | 1014.8 |
| 20260906010205 | 56 | 91 | 6.0 | 15.0 | 0.08 | 0.08 | 0.08 | 88 | 1015.3 |
| 20260906004206 | 57 | 76 | 3.0 | 8.0 | 0.03 | 0.03 | 0.03 | 88 | 1015.9 |
| 20260906002705 | 59 | 17 | 3.0 | 5.0 | 0.00 | 0.00 | 0.00 | 85 | 1016.0 |
| 20260906002205 | 59 | 14 | 3.0 | 9.0 | 0.00 | 0.00 | 0.00 | 83 | 1015.9 |
| 20260906000705 | 61 | 7 | 5.0 | 12.0 | 0.00 | 0.00 | 0.00 | 76 | 1015.6 |
| 20260906000205 | 62 | 17 | 4.0 | 9.0 | 0.00 | 0.00 | 0.00 | 74 | 1015.5 |
| 20260905234705 | 62 | 7 | 6.0 | 13.0 | 0.00 | 0.00 | 0.00 | 72 | 1015.4 |
| 20260905234205 | 62 | 50 | 3.0 | 13.0 | 0.00 | 0.00 | 0.00 | 71 | 1015.3 |
| 20260905232705 | 63 | 25 | 6.0 | 10.0 | 0.00 | 0.00 | 0.00 | 68 | 1015.0 |
| 20260905232205 | 63 | 29 | 5.0 | 12.0 | 0.00 | 0.00 | 0.00 | 68 | 1014.9 |
| 20260905230705 | 64 | 29 | 3.0 | 10.0 | 0.00 | 0.00 | 0.00 | 71 | 1014.4 |
| 20260905230205 | 64 | 39 | 6.0 | 15.0 | 0.00 | 0.00 | 0.00 | 70 | 1014.5 |
| 20260905224704 | 65 | 71 | 5.0 | 12.0 | 0.00 | 0.00 | 0.00 | 70 | 1014.4 |
| 20260905224204 | 65 | 66 | 4.0 | 10.0 | 0.00 | 0.00 | 0.00 | 70 | 1014.4 |
| 20260905222705 | 65 | 81 | 3.0 | 8.0 | 0.00 | 0.00 | 0.00 | 69 | 1014.3 |
| 20260905222204 | 65 | 43 | 5.0 | 10.0 | 0.00 | 0.00 | 0.00 | 68 | 1014.2 |
| 20260905220704 | 66 | 46 | 6.0 | 12.0 | 0.00 | 0.00 | 0.00 | 67 | 1014.0 |
| 20260905220205 | 66 | 44 | 4.0 | 12.0 | 0.00 | 0.00 | 0.00 | 67 | 1014.0 |
| 20260905214704 | 67 | 31 | 3.0 | 12.0 | 0.00 | 0.00 | 0.00 | 70 | 1013.6 |
| 20260905214204 | 67 | 50 | 6.0 | 15.0 | 0.00 | 0.00 | 0.00 | 70 | 1013.5 |
| 20260905212704 | 67 | 34 | 5.0 | 10.0 | 0.00 | 0.00 | 0.00 | 69 | 1013.3 |
| 20260905212205 | 68 | 57 | 3.0 | 12.0 | 0.00 | 0.00 | 0.00 | 69 | 1013.3 |
| 20260905210704 | 68 | 50 | 5.0 | 10.0 | 0.00 | 0.00 | 0.00 | 68 | 1013.0 |
| 20260905210204 | 68 | 46 | 5.0 | 13.0 | 0.00 | 0.00 | 0.00 | 69 | 1013.0 |
| 20260905204705 | 68 | 61 | 4.0 | 10.0 | 0.00 | 0.00 | 0.00 | 68 | 1013.0 |
| 20260905204205 | 69 | 61 | 9.0 | 15.0 | 0.00 | 0.00 | 0.00 | 66 | 1013.0 |
| 20260905202704 | 68 | 51 | 5.0 | 10.0 | 0.00 | 0.00 | 0.00 | 65 | 1012.8 |
| 20260905202204 | 68 | 60 | 4.0 | 12.0 | 0.00 | 0.00 | 0.00 | 66 | 1012.8 |
| 20260905200705 | 70 | 57 | 4.0 | 12.0 | 0.00 | 0.00 | 0.00 | 64 | 1012.7 |
| 20260905200204 | 70 | 18 | 4.0 | 12.0 | 0.00 | 0.00 | 0.00 | 63 | 1012.7 |
| 20260905194704 | 69 | 41 | 5.0 | 8.0 | 0.00 | 0.00 | 0.00 | 65 | 1012.6 |
| 20260905192705 | 70 | 58 | 6.0 | 12.0 | 0.00 | 0.00 | 0.00 | 63 | 1012.6 |
| 20260905192204 | 70 | 61 | 5.0 | 13.0 | 0.00 | 0.00 | 0.00 | 63 | 1012.7 |
| 20260905190705 | 69 | 58 | 5.0 | 10.0 | 0.00 | 0.00 | 0.00 | 65 | 1012.6 |
| 20260905190205 | 69 | 31 | 7.0 | 13.0 | 0.00 | 0.00 | 0.00 | 62 | 1012.7 |
| 20260905182206 | 68 | 11 | 4.0 | 12.0 | 0.00 | 0.00 | 0.00 | 72 | 1012.7 |
| 20260905180705 | 68 | 21 | 6.0 | 12.0 | 0.00 | 0.00 | 0.00 | 71 | 1012.8 |
| 20260905180204 | 68 | 72 | 3.0 | 13.0 | 0.00 | 0.00 | 0.00 | 72 | 1012.8 |
| 20260905174705 | 68 | 28 | 3.0 | 10.0 | 0.00 | 0.00 | 0.00 | 70 | 1012.8 |
| 20260905174205 | 68 | 26 | 6.0 | 12.0 | 0.00 | 0.00 | 0.00 | 73 | 1012.8 |
| 20260905172705 | 68 | 14 | 4.0 | 7.0 | 0.00 | 0.00 | 0.00 | 74 | 1012.7 |
| 20260905172204 | 67 | 37 | 5.0 | 12.0 | 0.00 | 0.00 | 0.00 | 76 | 1012.7 |
| 20260905170705 | 65 | 60 | 3.0 | 9.0 | 0.00 | 0.00 | 0.00 | 80 | 1012.9 |
| 20260905170204 | 64 | 39 | 4.0 | 13.0 | 0.00 | 0.00 | 0.00 | 80 | 1012.9 |
| 20260905164705 | 65 | 74 | 5.0 | 9.0 | 0.00 | 0.00 | 0.00 | 80 | 1013.0 |
| 20260905164204 | 64 | 20 | 4.0 | 9.0 | 0.00 | 0.00 | 0.00 | 80 | 1013.0 |
| 20260905162205 | 64 | 5 | 3.0 | 10.0 | 0.00 | 0.00 | 0.00 | 81 | 1013.0 |
| 20260905160704 | 64 | 54 | 2.0 | 6.0 | 0.00 | 0.00 | 0.00 | 82 | 1013.0 |
| 20260905160204 | 64 | 10 | 3.0 | 9.0 | 0.00 | 0.00 | 0.00 | 82 | 1013.0 |
| 20260905154704 | 64 | 66 | 3.0 | 9.0 | 0.00 | 0.00 | 0.00 | 81 | 1013.0 |
| 20260905154204 | 64 | 33 | 6.0 | 12.0 | 0.00 | 0.00 | 0.00 | 82 | 1012.9 |
| 20260905152704 | 64 | 59 | 4.0 | 13.0 | 0.00 | 0.00 | 0.00 | 83 | 1012.9 |
| 20260905152204 | 63 | 53 | 3.0 | 9.0 | 0.00 | 0.00 | 0.00 | 84 | 1012.9 |
| 20260905150704 | 63 | 75 | 3.0 | 8.0 | 0.00 | 0.00 | 0.00 | 84 | 1013.1 |
| 20260905150205 | 63 | 59 | 5.0 | 12.0 | 0.00 | 0.00 | 0.00 | 84 | 1013.0 |
| 20260905144704 | 63 | 29 | 5.0 | 9.0 | 0.00 | 0.00 | 0.00 | 82 | 1012.9 |
| 20260905144204 | 63 | 35 | 5.0 | 10.0 | 0.00 | 0.00 | 0.00 | 82 | 1012.9 |
| 20260905142704 | 63 | 59 | 3.0 | 8.0 | 0.00 | 0.00 | 0.00 | 83 | 1012.7 |
| 20260905140704 | 63 | 83 | 5.0 | 12.0 | 0.00 | 0.00 | 0.00 | 84 | 1012.6 |
| 20260905134705 | 63 | 12 | 4.0 | 8.0 | 0.00 | 0.00 | 0.00 | 85 | 1012.4 |
| 20260905134204 | 62 | 12 | 4.0 | 12.0 | 0.00 | 0.00 | 0.00 | 85 | 1012.3 |
| 20260905130704 | 62 | 50 | 3.0 | 9.0 | 0.00 | 0.00 | 0.00 | 88 | 1012.2 |
| 20260905130204 | 62 | 68 | 4.0 | 9.0 | 0.00 | 0.00 | 0.00 | 88 | 1012.1 |
| 20260905124204 | 61 | 21 | 3.0 | 9.0 | 0.00 | 0.00 | 0.00 | 90 | 1011.9 |
| 20260905122204 | 60 | 14 | 2.0 | 6.0 | 0.00 | 0.00 | 0.00 | 91 | 1012.0 |
| 20260905120704 | 60 | 0 | 3.0 | 6.0 | 0.00 | 0.00 | 0.00 | 91 | 1012.0 |
| 20260905120204 | 60 | 11 | 3.0 | 6.0 | 0.00 | 0.00 | 0.00 | 91 | 1011.9 |
| 20260905114703 | 60 | 5 | 2.0 | 3.0 | 0.00 | 0.00 | 0.00 | 91 | 1011.8 |
| 20260905114204 | 60 | 19 | 3.0 | 7.0 | 0.00 | 0.00 | 0.00 | 91 | 1011.8 |
| 20260905112704 | 59 | 11 | 3.0 | 6.0 | 0.00 | 0.00 | 0.00 | 92 | 1011.7 |
| 20260905110704 | 59 | 14 | 3.0 | 6.0 | 0.00 | 0.00 | 0.00 | 92 | 1011.6 |
| 20260905104704 | 59 | 11 | 2.0 | 6.0 | 0.00 | 0.00 | 0.00 | 91 | 1011.5 |
| 20260905104204 | 59 | 30 | 2.0 | 3.0 | 0.00 | 0.00 | 0.00 | 91 | 1011.5 |
| 20260905100704 | 59 | 14 | 2.0 | 3.0 | 0.00 | 0.00 | 0.00 | 90 | 1011.2 |
| 20260905100204 | 59 | 14 | 2.0 | 3.0 | 0.00 | 0.00 | 0.00 | 90 | 1011.2 |
| 20260905094704 | 59 | 44 | 1.0 | 3.0 | 0.00 | 0.00 | 0.00 | 90 | 1011.1 |
| 20260905094204 | 59 | 44 | 2.0 | 7.0 | 0.00 | 0.00 | 0.00 | 90 | 1011.2 |
| 20260905092704 | 59 | 19 | 2.0 | 3.0 | 0.00 | 0.00 | 0.00 | 90 | 1011.0 |
| 20260905092204 | 59 | 36 | 2.0 | 3.0 | 0.00 | 0.00 | 0.00 | 90 | 1011.0 |
| 20260905090204 | 59 | 344 | 1.0 | 3.0 | 0.00 | 0.00 | 0.00 | 90 | 1010.9 |
| 20260905084704 | 59 | 11 | 2.0 | 5.0 | 0.00 | 0.00 | 0.00 | 90 | 1010.9 |
| 20260905084204 | 59 | 31 | 2.0 | 3.0 | 0.00 | 0.00 | 0.00 | 90 | 1010.9 |
| 20260905082704 | 59 | 39 | 3.0 | 3.0 | 0.00 | 0.00 | 0.00 | 90 | 1010.8 |
| 20260905082204 | 59 | 47 | 1.0 | 6.0 | 0.00 | 0.00 | 0.00 | 90 | 1010.7 |
| 20260905080704 | 60 | 54 | 3.0 | 7.0 | 0.00 | 0.00 | 0.00 | 89 | 1010.6 |
| 20260905080204 | 60 | 47 | 2.0 | 5.0 | 0.00 | 0.00 | 0.00 | 89 | 1010.5 |
| 20260905074705 | 60 | 57 | 1.0 | 5.0 | 0.00 | 0.00 | 0.00 | 89 | 1010.5 |
| 20260905074206 | 60 | 51 | 3.0 | 8.0 | 0.00 | 0.00 | 0.00 | 89 | 1010.5 |
| 20260905072706 | 60 | 31 | 2.0 | 6.0 | 0.00 | 0.00 | 0.00 | 89 | 1010.5 |
| 20260905072205 | 60 | 82 | 3.0 | 6.0 | 0.00 | 0.00 | 0.00 | 89 | 1010.5 |
| 20260905070705 | 60 | 26 | 2.0 | 7.0 | 0.00 | 0.00 | 0.00 | 89 | 1010.4 |
| 20260905070205 | 60 | 43 | 3.0 | 7.0 | 0.00 | 0.00 | 0.00 | 89 | 1010.4 |
| 20260905064705 | 60 | 61 | 2.0 | 5.0 | 0.00 | 0.00 | 0.00 | 89 | 1010.4 |
| 20260905064205 | 60 | 21 | 3.0 | 7.0 | 0.00 | 0.00 | 0.00 | 89 | 1010.3 |
| 20260905060705 | 60 | 53 | 1.0 | 3.0 | 0.00 | 0.00 | 0.00 | 90 | 1010.2 |
| 20260905060205 | 60 | 54 | 3.0 | 7.0 | 0.00 | 0.00 | 0.00 | 90 | 1010.2 |
| 20260905054704 | 60 | 53 | 2.0 | 5.0 | 0.00 | 0.00 | 0.00 | 91 | 1010.2 |
| 20260905054205 | 60 | 51 | 2.0 | 7.0 | 0.00 | 0.00 | 0.00 | 91 | 1010.1 |
| 20260905052705 | 60 | 8 | 2.0 | 3.0 | 0.00 | 0.00 | 0.00 | 92 | 1010.1 |
| 20260905052205 | 60 | 46 | 2.0 | 5.0 | 0.00 | 0.00 | 0.00 | 92 | 1010.1 |
| 20260905050704 | 60 | 14 | 3.0 | 7.0 | 0.00 | 0.00 | 0.00 | 92 | 1010.0 |
| 20260905050205 | 60 | 19 | 2.0 | 5.0 | 0.00 | 0.00 | 0.00 | 92 | 1010.0 |
| 20260905044705 | 60 | 36 | 2.0 | 3.0 | 0.00 | 0.00 | 0.00 | 92 | 1010.1 |
| 20260905044205 | 60 | 20 | 2.0 | 7.0 | 0.00 | 0.00 | 0.00 | 93 | 1010.1 |
| 20260905042705 | 61 | 7 | 2.0 | 3.0 | 0.00 | 0.00 | 0.00 | 92 | 1010.0 |
| 20260905042205 | 61 | 20 | 3.0 | 5.0 | 0.00 | 0.00 | 0.00 | 92 | 1010.0 |
| 20260905040705 | 61 | 49 | 2.0 | 3.0 | 0.00 | 0.00 | 0.00 | 92 | 1010.0 |
| 20260905040205 | 61 | 50 | 2.0 | 3.0 | 0.00 | 0.00 | 0.00 | 92 | 1010.1 |
| 20260905034705 | 61 | 51 | 1.0 | 3.0 | 0.00 | 0.00 | 0.00 | 91 | 1010.0 |
| 20260905034205 | 62 | 51 | 1.0 | 3.0 | 0.00 | 0.00 | 0.00 | 92 | 1010.0 |
| 20260905032205 | 62 | 53 | 2.0 | 8.0 | 0.00 | 0.00 | 0.00 | 91 | 1010.0 |
| 20260905030705 | 63 | 356 | 3.0 | 7.0 | 0.00 | 0.00 | 0.00 | 91 | 1010.0 |
| 20260905030205 | 63 | 3 | 5.0 | 9.0 | 0.00 | 0.00 | 0.00 | 91 | 1010.1 |
| 20260905024705 | 63 | 31 | 2.0 | 3.0 | 0.00 | 0.00 | 0.00 | 90 | 1010.0 |
| 20260905024205 | 64 | 34 | 2.0 | 3.0 | 0.00 | 0.00 | 0.00 | 90 | 1010.0 |